This is the latest recevied weather packets stored in our database for station/object AF5AA. If no packets are shown the sender has not sent any weather packets the latest 1 day(s).
| Time | Temp. | Humidity | Pressure | Rain* | Wind** | Luminosity | Snow |
|---|---|---|---|---|---|---|---|
| 1778029203 | 25.56° C | 88% | 1005.2 hPa | 0 mm | 0 m/s | 1 W/m² | - |
| 1778028901 | 26.11° C | 87% | 1005.1 hPa | 0 mm | 0 m/s | 2 W/m² | - |
| 1778028596 | 26.11° C | 86% | 1005.1 hPa | 0 mm | 0 m/s | 4 W/m² | - |
| 1778028294 | 26.11° C | 86% | 1005 hPa | 0 mm | 0 m/s | 5 W/m² | - |
| 1778027990 | 26.11° C | 85% | 1005 hPa | 0 mm | 0 m/s | 6 W/m² | - |
| 1778027687 | 26.67° C | 84% | 1004.8 hPa | 0 mm | 0 m/s | 9 W/m² | - |
| 1778027383 | 26.67° C | 83% | 1005 hPa | 0 mm | 0 m/s | 9 W/m² | - |
| 1778027079 | 26.67° C | 83% | 1004.8 hPa | 0 mm | 0 m/s | 10 W/m² | - |
| 1778026774 | 26.67° C | 83% | 1004.8 hPa | 0 mm | 0 m/s | 15 W/m² | - |
| 1778026472 | 26.67° C | 82% | 1004.8 hPa | 0 mm | 0 m/s | 20 W/m² | - |
| 1778026169 | 26.67° C | 82% | 1004.8 hPa | 0 mm | 0 m/s | 20 W/m² | - |
| 1778025867 | 26.67° C | 81% | 1004.9 hPa | 0 mm | 0 m/s | 21 W/m² | - |
| 1778025563 | 27.22° C | 82% | 1005 hPa | 0 mm | 0 m/s | 26 W/m² | - |
| 1778025262 | 27.22° C | 81% | 1004.8 hPa | 0 mm | 0 m/s | 35 W/m² | - |
| 1778024958 | 27.22° C | 81% | 1004.9 hPa | 0 mm | 0 m/s | 34 W/m² | - |
| 1778024656 | 27.22° C | 80% | 1004.9 hPa | 0 mm | 0 m/s | 36 W/m² | - |
| 1778024352 | 27.22° C | 79% | 1004.6 hPa | 0 mm | 0 m/s | 35 W/m² | - |
| 1778024050 | 27.22° C | 79% | 1004.7 hPa | 0 mm | 0 m/s | 39 W/m² | - |
| 1778023747 | 27.78° C | 78% | 1004.7 hPa | 0 mm | 0 m/s | 35 W/m² | - |
| 1778023445 | 27.78° C | 78% | 1004.5 hPa | 0 mm | 0 m/s | 34 W/m² | - |
| 1778023141 | 27.78° C | 76% | 1004.4 hPa | 0 mm | 0 m/s | 47 W/m² | - |
| 1778022839 | 27.78° C | 76% | 1004.4 hPa | 0 mm | 0 m/s | 45 W/m² | - |
| 1778022537 | 27.78° C | 75% | 1004.5 hPa | 0 mm | 0.45 m/s, 90° | 46 W/m² | - |
| 1778022234 | 27.78° C | 73% | 1004.5 hPa | 0 mm | 0 m/s | 46 W/m² | - |
| 1778021930 | 28.33° C | 76% | 1004.7 hPa | 0 mm | 0 m/s | 47 W/m² | - |
* Rain latest hour (hover to see other rain measurements)
** Current wind speed in m/s (hover to see current wind gust speed)